STARLINK-11684, 64240

Orbit data source: Space-Track

STARLINK-11684, 64240 is a payload satellite owned by SpaceX/Seattle (US) in LEO that was launched on Tue, 03 Jun 2025 UTC via an FALCON 9 launch vehicle from the Air Force Eastern Test Range (AFETR). Payload-class satellites include a variety of spacecraft equipped with specific instruments for various scientific and technological missions. These include communications satellites like Starlink; space stations such as the ISS; scientific satellites like the Hubble; Earth observation satellites from companies like Planet Labs, Umbra, and HawkEye 360; GPS; miniature CubeSats for education and research; and military/defense satellites.

Loading next visibility...
Identifier
64240, 2025-119H
Orbit
LEO
Country
Flag of USUS
Related business
Manufacturer
SpaceX/Seattle
Mission
Operational Commercial Communications
Bus & Motor
STARLINK V2MD, Unknown motor
Mass
960 kg wet, ~910 kg dry
Launch date (UTC)
2025-06-03 (1 year ago)
Launch vehicle
FALCON 9
Launch site
Air Force Eastern Test Range (AFETR)
Object type
Payload
Rocket body
Debris
Shape & HBR
Box + 2 Pan, 18.1 m
Radar Cross Section
36.964 m², Large (>1 m²)

Expand to show TLE details & history
Last TLE update: 10 hours ago

TLE from 10 hours ago
0 STARLINK-11684
1 64240U 25119H   26171.44298566  .00172757  00000-0  13230-2 0  9995
2 64240  42.9995 309.8840 0001828 280.6675  79.3987 15.70821463 61402
Epoch: 2026-06-20T10:37Z
TLE epoch observation values (Epoch: 2026-06-20T10:37:53.961Z)
Latitude
0.00002°
Longitude
-118.24835°
Altitude
356.093 km
Speed
7.698 km/s
True Right ascension
20h 39m 32s
True Declination
0° 00' 00"
Sunlit
Object was in full shadow at epoch
Visualization orbit readout
Latitude
Unknown
Longitude
Unknown
Altitude
Unknown
Speed
Unknown
Apparent Right ascension
Unknown
Apparent Declination
Unknown
Sunlit
N/A
Visualization observer readout
Local Sidereal Time
07:12:41
Azimuth
Unknown
Elevation
Unknown
Doppler factor
Unknown
Orbital elements
Apogee altitude
359.761 km
Perigee altitude
357.298 km
Semi-major axis
6,736.667 km
Eccentricity
0.00018
Inclination
42.9995°
RAAN
309.884°
Arg. of periapsis
280.6675°
True anomaly
79.41929°
Mean anomaly
79.3987°
Eccentric anomaly
79.409°
Mean motion
3.92532 °/min
Orbital period
91.71 mins
BSTAR
0.001323
Loading maneuver chart data...
Computing Atmospheric mass density...
Loading historical data...
Loading historical data...
Loading historical data...
Loading historical data...
Loading historical data...
Loading historical data...
Loading historical data...

Documentation

Showing up to 5 results
|